Showing default

QIANFAN-72, 62802

Orbit data source: Space-Track

QIANFAN-72, 62802 is a Chinese payload satellite in LEO that was launched on Thu, 23 Jan 2025 UTC via a CHANG ZHENG 6A launch vehicle from the Taiyaun Space Center, China (TSC). Payload-class satellites include a variety of spacecraft equipped with specific instruments for various scientific and technological missions. These include communications satellites like Starlink; space stations such as the ISS; scientific satellites like the Hubble; Earth observation satellites from companies like Planet Labs, Umbra, and HawkEye 360; GPS; miniature CubeSats for education and research; and military/defense satellites.

Loading next visibility...
Identifier
62802, 2025-016T
Orbit
LEO
Country
Flag of CNCN / PRC
Related business
Manufacturer
SECM
Mission
Operational Commercial Communications
Bus & Motor
QIANFAN, Unknown motor
Mass
267 kg wet, ~267 kg dry
Launch date (UTC)
2025-01-23 (9 months ago)
Launch vehicle
CHANG ZHENG 6A
Launch site
Taiyaun Space Center, China (TSC)
Object type
Payload
Rocket body
Debris
Shape & HBR
Box + 1 Pan, 1.2 m
Radar Cross Section
13.200 m², Large (>1 m²)

Expand to show TLE details & history
Last TLE update: 3 weeks ago

TLE from 3 weeks ago
0 QIANFAN-72
1 62802U 25016T   25274.29087208  .00000084  00000-0  11481-3 0  9998
2 62802  88.9730 110.6012 0018440 200.3911 159.6505 13.49486897 37447
Epoch: 2025-10-01T06:58Z
TLE epoch observation values (Epoch: 2025-10-01T06:58:51.347Z)
Latitude
-0.00004°
Longitude
-4.38074°
Altitude
1,089.988 km
Speed
7.301 km/s
True Right ascension
07h 22m 24s
True Declination
0° 00' 00"
Sunlit
Object was in daylight at epoch
Visualization orbit readout
Latitude
Unknown
Longitude
Unknown
Altitude
Unknown
Speed
Unknown
Apparent Right ascension
Unknown
Apparent Declination
Unknown
Sunlit
N/A
Visualization observer readout
Local Sidereal Time
23:50:44
Azimuth
Unknown
Elevation
Unknown
Doppler factor
Unknown
Orbital elements
Apogee altitude
1,084.937 km
Perigee altitude
1,057.464 km
Semi-major axis
7,449.337 km
Eccentricity
0.00184
Inclination
88.973°
RAAN
110.6012°
Arg. of periapsis
200.3911°
True anomaly
159.72382°
Mean anomaly
159.6505°
Eccentric anomaly
159.68718°
Mean motion
3.37572 °/min
Orbital period
106.64 mins
BSTAR
0.00011481
Loading maneuver chart data...
Computing Atmospheric mass density...
Loading historical data...
Loading historical data...
Loading historical data...
Loading historical data...
Loading historical data...
Loading historical data...
Loading historical data...

Documentation

Showing up to 5 results
|